GW6790 Weather Reports


time (UTC)temp
C
wind
direction
speed
KPH
gust
KPH
rain 1hr
cm
rain 24hr
cm
rain mn
cm
humidity
%
barometer
mb
20260510200049 18 350 4.8 16.1 0.00 0.30 0.00 34 1019.8
20260510190017 17 6 4.8 17.7 0.00 0.30 0.00 38 1019.6
20260510180018 17 9 4.8 17.7 0.00 0.30 0.00 41 1019.8
20260510170050 16 358 6.4 17.7 0.00 0.30 0.00 42 1020.1
20260510160018 16 358 6.4 19.3 0.00 0.30 0.00 45 1019.8
20260510150018 15 358 6.4 19.3 0.00 0.30 0.00 54 1018.9
20260510140018 13 4 4.8 16.1 0.00 0.30 0.00 63 1018.5
20260510130018 12 358 3.2 0.0 0.00 0.30 0.00 80 1017.8
20260510120150 12 332 1.6 0.0 0.00 0.30 0.00 90 1016.7
20260510110017 12 338 3.2 0.0 0.00 0.30 0.00 96 1015.4
20260510100017 12 310 1.6 0.0 0.00 0.30 0.00 97 1014.9
20260510090050 13 215 0.0 0.0 0.00 0.30 0.00 97 1013.9
20260510080017 13 204 0.0 0.0 0.00 0.30 0.00 96 1013.1
20260510070018 15 353 3.2 0.0 0.00 0.30 0.00 94 1012.9
20260510060017 15 35 3.2 0.0 0.10 0.30 0.00 94 1012.1
20260510050017 15 1 3.2 17.7 0.10 0.18 0.00 92 1012.4
20260510040018 17 344 9.7 49.9 0.08 0.08 0.00 80 1012.1
20260510030017 19 170 1.6 0.0 0.00 0.00 0.00 57 1009.7
20260510020019 20 161 1.6 0.0 0.00 0.00 0.00 54 1008.8
20260510010017 22 158 0.0 0.0 0.00 0.00 0.00 41 1008.4
20260510000018 25 302 1.6 0.0 0.00 0.00 0.00 32 1008.2
20260509230018 26 318 3.2 17.7 0.00 0.81 0.00 32 1008.0
20260509220049 26 325 4.8 27.4 0.00 0.81 0.00 36 1008.1
20260509210019 26 325 4.8 17.7 0.00 0.81 0.00 37 1008.5